Location: Feigenhofen
(48.4939°N, 10.7793°E)
Time: 15:54:36
(UTC+00:00)

COSMOS 2428 - Pass Details

Date: 26 May 2022
Orbit: 846 x 855 km, 70.9° (Epoch: 29 June)

Event Time Altitude Azimuth Distance (km) Brightness Sun altitude
Exits shadow 01:12:21 - 260° (W) 2,648 4.9 -15.5°
Reaches altitude 10° 01:12:57 10° 264° (W) 2,471 4.8 -15.5°
Maximum altitude 01:17:27 24° 317° (NW) 1,703 4.5 -15.1°
Drops below altitude 10° 01:21:59 10° 10° (N) 2,481 6.3 -14.8°
Sets 01:24:57 0° 24° (NNE) 3,420 7.7 -14.5°
